(499262) = 2009 VE29

Discovered at Kitt Peak on 2009-11-09 by Spacewatch.

Orbit

Orbit type: Main Belt

Note: WebGL enabled browser required.

epoch2023-02-25.0
epoch JD2460000.5
perihelion date2022-03-06.37257
perihelion JD2459644.87257
argument of perihelion (°)357.16984
ascending node (°)40.00541
inclination (°)12.51858
eccentricity0.1801081
perihelion distance (AU)2.1150135
Tisserand w.r.t. Jupiter3.4
ΔV w.r.t. Earth (km/sec)9.9
semimajor axis (AU)2.5796247
mean anomaly (°)84.59882
mean daily motion (°/day)0.23788610
aphelion distance (AU)3.044
period (years)4.14
P-vector [x]0.79603636
P-vector [y]0.55947529
P-vector [z]0.23089720
Q-vector [x]-0.58899016
Q-vector [y]0.62823838
Q-vector [z]0.50833762
absolute magnitude17.73
phase slope0.15
uncertainty1
referenceMPEC 2023-C144
observations used92
oppositions6
arc length (days)4844
first opposition used2009
last opposition used2023
residual rms (arc-secs)0.43
perturbers coarse indicatorM-v
perturbers precise indicator003Ek
first observation date used2009-11-09.0
last observation date used2023-02-13.0
computer nameMPCLINUX
JD of orbit computation2458014.379751
perihelion JD uncertainty (days)4.8623E-04
argument of perihelion uncertainty (°)1.1949E-04
ascending node uncertainty (°)2.0762E-05
inclination uncertainty (°)8.3693E-06
eccentricity uncertainty 4.3636E-07
perihelion distance uncertainty (AU)1.2144E-06
Minimum Orbit Intersection Distances (in AU)
for orbit epoch: 2460000.5, reference: E2023-CE4
Mercury1.78925
Venus1.39162
Earth1.12099
Mars0.6524
Jupiter2.38023
Saturn6.6384
Uranus15.5397
Neptune27.6712

Observations

92 total observations over interval: 2009 11 09.19884 – 2023 02 13.333531
These data are available for download (format description).

Date (UT) J2000 RA J2000 Dec Magn Location Ref
2009 11 09.19884 03 20 35.38 +22 46 32.3 20.2 V 691 – Steward Observatory, Kitt Peak-Spacewatch MPS 302430
2009 11 09.21603 03 20 34.13 +22 46 37.4 20.2 V 691 – Steward Observatory, Kitt Peak-Spacewatch MPS 302430
2009 11 09.23323 03 20 32.88 +22 46 42.1 19.8 V 691 – Steward Observatory, Kitt Peak-Spacewatch MPS 302430
2009 11 11.35579 03 18 02.55 +22 55 54.4 19.8 V G96 – Mt. Lemmon Survey MPS 302430
2009 11 11.36142 03 18 02.08 +22 55 55.6 19.5 V G96 – Mt. Lemmon Survey MPS 302430
2009 11 11.36705 03 18 01.69 +22 55 56.9 19.6 V G96 – Mt. Lemmon Survey MPS 302430
2009 11 11.37272 03 18 01.29 +22 55 58.3 19.6 V G96 – Mt. Lemmon Survey MPS 302430
2009 11 11.89998 03 17 24.25 +22 58 10.0 19.4 V J75 – OAM Observatory, La Sagra MPS 302430
2009 11 11.91266 03 17 23.31 +22 58 13.1 19.4 V J75 – OAM Observatory, La Sagra MPS 302430
2009 11 11.92538 03 17 22.36 +22 58 16.9 19.3 V J75 – OAM Observatory, La Sagra MPS 302430
2009 11 18.09045 03 10 04.10 +23 21 48.3 20.2 V 691 – Steward Observatory, Kitt Peak-Spacewatch MPS 303473
2009 11 18.10815 03 10 02.86 +23 21 52.1 20.1 V 691 – Steward Observatory, Kitt Peak-Spacewatch MPS 303473
2009 11 18.12585 03 10 01.57 +23 21 55.9 20.0 V 691 – Steward Observatory, Kitt Peak-Spacewatch MPS 303473
2010 02 07.155925 03 13 16.95 +27 47 07.2   C51 – WISE MPS 332006
2010 02 07.222140 03 13 21.82 +27 47 21.7   C51 – WISE MPS 332006
2010 02 07.288229 03 13 26.863 +27 47 45.85   C51 – WISE MPS 904570
2010 02 07.354444 03 13 31.96 +27 47 59.8   C51 – WISE MPS 332006
2010 02 07.552964 03 13 47.26 +27 49 00.2   C51 – WISE MPS 332006
2010 02 07.751358 03 14 02.03 +27 49 54.2   C51 – WISE MPS 332006
2010 02 07.751485 03 14 02.141 +27 49 57.94   C51 – WISE MPS 904570
2013 10 03.41475 01 57 24.719 +03 24 25.19 20.4 w F51 – Pan-STARRS 1, Haleakala MPS 488494
2013 10 03.43008 01 57 23.866 +03 24 26.77 20.3 w F51 – Pan-STARRS 1, Haleakala MPS 488494
2013 10 03.44521 01 57 23.029 +03 24 28.27 20.3 w F51 – Pan-STARRS 1, Haleakala MPS 488494
2013 10 03.46043 01 57 22.165 +03 24 29.85 20.5 w F51 – Pan-STARRS 1, Haleakala MPS 488494
2013 10 11.27826 01 49 48.21 +03 38 14.6 19.4 R 926 – Tenagra II Observatory, Nogales MPS 488494
2013 10 11.29693 01 49 47.02 +03 38 17.6 19.2 R 926 – Tenagra II Observatory, Nogales MPS 488494
2013 10 11.31332 01 49 45.94 +03 38 19.8 19.3 R 926 – Tenagra II Observatory, Nogales MPS 488494
2013 10 13.39990 01 47 34.29 +03 42 27.9 19.6 V G96 – Mt. Lemmon Survey MPS 488494
2013 10 13.40801 01 47 33.75 +03 42 28.7 19.9 V G96 – Mt. Lemmon Survey MPS 488494
2013 10 13.41617 01 47 33.19 +03 42 29.7 19.8 V G96 – Mt. Lemmon Survey MPS 488494
2013 10 13.42432 01 47 32.66 +03 42 30.7 19.4 V G96 – Mt. Lemmon Survey MPS 488494
2013 10 24.20772 01 35 48.51 +04 08 50.9 19.6 V G96 – Mt. Lemmon Survey MPS 488494
2013 10 24.21192 01 35 48.22 +04 08 51.4 19.5 V G96 – Mt. Lemmon Survey MPS 488494
2013 10 24.21609 01 35 47.94 +04 08 52.0 19.5 V G96 – Mt. Lemmon Survey MPS 488494
2013 10 24.22026 01 35 47.66 +04 08 52.9 19.8 V G96 – Mt. Lemmon Survey MPS 488494
2013 10 26.31318 01 33 31.99 +04 15 09.0 19.7 V G96 – Mt. Lemmon Survey MPS 488494
2013 10 26.31951 01 33 31.54 +04 15 10.2 19.8 V G96 – Mt. Lemmon Survey MPS 488494
2013 10 26.32583 01 33 31.12 +04 15 11.4 19.8 V G96 – Mt. Lemmon Survey MPS 488494
2013 10 26.33215 01 33 30.69 +04 15 12.7 19.6 V G96 – Mt. Lemmon Survey MPS 488494
2013 12 07.13211 01 10 24.32 +08 06 00.0 20.7 V G96 – Mt. Lemmon Survey MPS 491009
2013 12 07.13940 01 10 24.34 +08 06 03.1 20.3 V G96 – Mt. Lemmon Survey MPS 491009
2013 12 07.14667 01 10 24.39 +08 06 06.7 20.8 V G96 – Mt. Lemmon Survey MPS 491009
2013 12 07.15396 01 10 24.39 +08 06 10.3 20.6 V G96 – Mt. Lemmon Survey MPS 491009
2015 02 20.57496 11 53 18.908 +17 53 58.60 21.9 w F51 – Pan-STARRS 1, Haleakala MPS 580332
2015 02 20.58857 11 53 18.225 +17 54 03.06 21.9 w F51 – Pan-STARRS 1, Haleakala MPS 580332
2015 02 20.60222 11 53 17.547 +17 54 06.92 21.9 w F51 – Pan-STARRS 1, Haleakala MPS 580332
2015 02 20.61601 11 53 16.844 +17 54 11.67 22.0 w F51 – Pan-STARRS 1, Haleakala MPS 580332
2017 08 31.44976 00 39 22.416 -13 34 29.79 20.9 i F51 – Pan-STARRS 1, Haleakala MPS 813385
2017 08 31.46111 00 39 22.000 -13 34 31.69 21.0 i F51 – Pan-STARRS 1, Haleakala MPS 813385
2017 08 31.47246 00 39 21.552 -13 34 33.80 20.8 i F51 – Pan-STARRS 1, Haleakala MPS 813385
2017 08 31.48381 00 39 21.126 -13 34 35.98 20.7 i F51 – Pan-STARRS 1, Haleakala MPS 813385
2017 09 17.42631 00 25 43.524 -14 16 28.56 20.4 w F51 – Pan-STARRS 1, Haleakala MPS 817035
2017 09 17.43790 00 25 42.810 -14 16 29.76 20.4 w F51 – Pan-STARRS 1, Haleakala MPS 817035
2017 09 17.44951 00 25 42.093 -14 16 30.71 20.5 w F51 – Pan-STARRS 1, Haleakala MPS 817035
2017 09 17.46113 00 25 41.376 -14 16 31.76 20.4 w F51 – Pan-STARRS 1, Haleakala MPS 817035
2017 10 08.37043 00 04 16.094 -14 02 29.16 20.1 i F51 – Pan-STARRS 1, Haleakala MPS 826205
2017 10 08.38218 00 04 15.385 -14 02 27.22 20.1 i F51 – Pan-STARRS 1, Haleakala MPS 826205
2017 10 08.39381 00 04 14.686 -14 02 24.87 20.4 i F51 – Pan-STARRS 1, Haleakala MPS 826205
2017 10 26.18653 23 50 44.95 -12 27 19.4 21.1 G G96 – Mt. Lemmon Survey MPS 831709
2017 10 26.19191 23 50 44.82 -12 27 16.7 22.3 G G96 – Mt. Lemmon Survey MPS 831709
2017 10 26.19726 23 50 44.63 -12 27 15.2 20.7 G G96 – Mt. Lemmon Survey MPS 831709
2017 10 26.20265 23 50 44.47 -12 27 12.8 21.1 G G96 – Mt. Lemmon Survey MPS 831709
2017 11 07.30651 23 46 56.121 -10 43 48.81 21.2 i F51 – Pan-STARRS 1, Haleakala MPS 835539
2017 11 07.31771 23 46 56.013 -10 43 42.51 21.1 i F51 – Pan-STARRS 1, Haleakala MPS 835539
2017 11 07.32889 23 46 55.900 -10 43 35.94 21.1 i F51 – Pan-STARRS 1, Haleakala MPS 835539
2017 11 07.34007 23 46 55.791 -10 43 29.74 21.2 i F51 – Pan-STARRS 1, Haleakala MPS 835539
2017 11 20.15496 23 48 04.58 -08 29 23.0 22.5 G G96 – Mt. Lemmon Survey MPS 842884
2017 11 20.16072 23 48 04.63 -08 29 18.4 21.2 G G96 – Mt. Lemmon Survey MPS 842884
2017 11 20.16647 23 48 04.79 -08 29 13.9   G96 – Mt. Lemmon Survey MPS 842884
2017 11 20.17219 23 48 04.79 -08 29 10.7 22.6 G G96 – Mt. Lemmon Survey MPS 842884
2021 08 29.420887 23 01 19.423 -27 55 22.24 20.53 i F51 – Pan-STARRS 1, Haleakala MPS 1459388
2021 08 29.431448 23 01 18.762 -27 55 24.12 20.67 i F51 – Pan-STARRS 1, Haleakala MPS 1459388
2021 08 29.442027 23 01 18.086 -27 55 26.38 20.51 i F51 – Pan-STARRS 1, Haleakala MPS 1459388
2021 09 04.400994 22 55 06.054 -28 10 49.66 20.59 w F51 – Pan-STARRS 1, Haleakala MPS 1459388
2021 09 04.416850 22 55 04.982 -28 10 51.50 20.77 w F51 – Pan-STARRS 1, Haleakala MPS 1459388
2021 09 04.447869 22 55 02.945 -28 10 54.88 20.71 w F51 – Pan-STARRS 1, Haleakala MPS 1459388
2021 09 08.392242 22 50 53.886 -28 15 41.85 20.69 w F52 – Pan-STARRS 2, Haleakala MPS 1470347
2021 09 08.403214 22 50 53.172 -28 15 42.29 20.68 w F52 – Pan-STARRS 2, Haleakala MPS 1470347
2021 09 08.414164 22 50 52.448 -28 15 42.58 20.65 w F52 – Pan-STARRS 2, Haleakala MPS 1470347
2021 09 08.425148 22 50 51.723 -28 15 43.19 20.61 w F52 – Pan-STARRS 2, Haleakala MPS 1470347
2023 01 29.435377 10 03 26.179 +33 06 39.28 21.69 G V00 – Kitt Peak-Bok MPS 1746392
2023 01 29.440342 10 03 25.870 +33 06 41.22 21.32 G V00 – Kitt Peak-Bok MPS 1746392
2023 01 29.445307 10 03 25.574 +33 06 42.95 21.56 G V00 – Kitt Peak-Bok MPS 1746392
2023 01 29.450275 10 03 25.229 +33 06 44.60 21.15 G V00 – Kitt Peak-Bok MPS 1746392
2023 02 01.371277 10 00 24.350 +33 23 55.90 20.90 G G96 – Mt. Lemmon Survey MPS 1746392
2023 02 01.377039 10 00 23.983 +33 23 57.80 20.57 G G96 – Mt. Lemmon Survey MPS 1746392
2023 02 01.382803 10 00 23.576 +33 24 00.14 20.90 G G96 – Mt. Lemmon Survey MPS 1746392
2023 02 01.388584 10 00 23.227 +33 24 03.60 20.25 G G96 – Mt. Lemmon Survey MPS 1746392
2023 02 13.317829 09 47 07.854 +34 15 26.64 21.27 G G96 – Mt. Lemmon Survey MPS 1746392
2023 02 13.323114 09 47 07.436 +34 15 27.29   G96 – Mt. Lemmon Survey MPS 1746392
2023 02 13.328328 09 47 07.055 +34 15 28.91   G96 – Mt. Lemmon Survey MPS 1746392
2023 02 13.333531 09 47 06.720 +34 15 29.12 21.51 G G96 – Mt. Lemmon Survey MPS 1746392